Hourly Weather Bolshie Shestaki

Today, 23 June, Wednesday

Time Temperature Precipitation Wind Pressure Humidity
00:00 +23°C° 0.1 mm 1 mps 746 mmHg 86%
01:00 +23°C° 0.1 mm 1 mps 747 mmHg 88%
02:00 +22°C° 0 mm 1 mps 747 mmHg 88%
03:00 +22°C° 0 mm 1 mps 747 mmHg 89%
04:00 +22°C° 0 mm 1 mps 747 mmHg 89%
05:00 +21°C° 0 mm 2 mps 747 mmHg 90%
06:00 +24°C° 0 mm 2 mps 747 mmHg 85%
07:00 +25°C° 0 mm 2 mps 748 mmHg 79%
08:00 +27°C° 0 mm 2 mps 748 mmHg 74%
09:00 +28°C° 0 mm 2 mps 748 mmHg 70%
10:00 +29°C° 0 mm 2 mps 749 mmHg 67%
11:00 +30°C° 0 mm 2 mps 749 mmHg 63%
12:00 +31°C° 0 mm 2 mps 749 mmHg 60%
13:00 +31°C° 0 mm 2 mps 749 mmHg 57%
14:00 +32°C° 0 mm 2 mps 749 mmHg 54%
15:00 +32°C° 0 mm 2 mps 749 mmHg 55%
16:00 +32°C° 0 mm 2 mps 749 mmHg 57%
17:00 +32°C° 0 mm 2 mps 749 mmHg 58%
18:00 +30°C° 0.5 mm 2 mps 749 mmHg 65%
19:00 +29°C° 0.5 mm 1 mps 749 mmHg 72%
20:00 +27°C° 0.5 mm 1 mps 749 mmHg 78%
21:00 +26°C° 1 mm 1 mps 749 mmHg 83%
22:00 +24°C° 1 mm 2 mps 750 mmHg 88%
23:00 +23°C° 1 mm 2 mps 750 mmHg 92%

Tomorrow, 24 June, Thursday

Time Temperature Precipitation Wind Pressure Humidity
00:00 +21°C° 1.5 mm 2 mps 750 mmHg 93%
01:00 +21°C° 1.5 mm 2 mps 750 mmHg 94%
02:00 +20°C° 1.5 mm 3 mps 750 mmHg 95%
03:00 +20°C° 0.7 mm 2 mps 750 mmHg 95%
04:00 +20°C° 0.7 mm 2 mps 749 mmHg 95%
05:00 +20°C° 0.7 mm 2 mps 749 mmHg 95%
06:00 +21°C° 0.5 mm 2 mps 749 mmHg 93%
07:00 +23°C° 0.5 mm 2 mps 749 mmHg 91%
08:00 +24°C° 0.5 mm 2 mps 749 mmHg 90%
09:00 +26°C° 0 mm 2 mps 749 mmHg 83%
10:00 +27°C° 0 mm 2 mps 749 mmHg 77%
11:00 +29°C° 0 mm 2 mps 749 mmHg 70%
12:00 +30°C° 0.8 mm 2 mps 749 mmHg 68%
13:00 +31°C° 0.8 mm 2 mps 749 mmHg 66%
14:00 +31°C° 0.8 mm 2 mps 749 mmHg 65%
15:00 +31°C° 1 mm 2 mps 748 mmHg 66%
16:00 +31°C° 1 mm 2 mps 747 mmHg 67%
17:00 +30°C° 1 mm 2 mps 747 mmHg 69%
18:00 +28°C° 1.9 mm 2 mps 747 mmHg 71%
19:00 +26°C° 1.9 mm 2 mps 747 mmHg 73%
20:00 +23°C° 1.9 mm 1 mps 747 mmHg 76%
21:00 +21°C° 1.1 mm 2 mps 747 mmHg 81%
22:00 +20°C° 1.1 mm 2 mps 747 mmHg 87%
23:00 +20°C° 1.1 mm 2 mps 748 mmHg 92%

Day after tomorrow, 25 June, Friday

Time Temperature Precipitation Wind Pressure Humidity
00:00 +20°C° 0.3 mm 2 mps 747 mmHg 92%
01:00 +20°C° 0.3 mm 2 mps 746 mmHg 92%
02:00 +19°C° 0.3 mm 2 mps 746 mmHg 92%
03:00 +20°C° 0 mm 2 mps 746 mmHg 92%
04:00 +20°C° 0 mm 2 mps 746 mmHg 93%
05:00 +21°C° 0 mm 1 mps 746 mmHg 93%
06:00 +21°C° 0 mm 2 mps 746 mmHg 89%
07:00 +23°C° 0 mm 2 mps 746 mmHg 85%
08:00 +24°C° 0 mm 2 mps 746 mmHg 81%
09:00 +26°C° 0.1 mm 2 mps 746 mmHg 76%
10:00 +27°C° 0.1 mm 2 mps 746 mmHg 70%
11:00 +28°C° 0.1 mm 2 mps 746 mmHg 65%
12:00 +29°C° 0.1 mm 2 mps 746 mmHg 64%
13:00 +29°C° 0.1 mm 2 mps 746 mmHg 63%
14:00 +30°C° 0.1 mm 2 mps 746 mmHg 62%
15:00 +30°C° 0.4 mm 1 mps 746 mmHg 63%
16:00 +30°C° 0.4 mm 1 mps 745 mmHg 64%
17:00 +30°C° 0.4 mm 1 mps 745 mmHg 65%
18:00 +28°C° 0.8 mm 1 mps 745 mmHg 71%
19:00 +27°C° 0.8 mm 1 mps 744 mmHg 77%
20:00 +25°C° 0.8 mm 2 mps 744 mmHg 84%
21:00 +24°C° 1.4 mm 2 mps 744 mmHg 88%
22:00 +22°C° 1.4 mm 3 mps 745 mmHg 92%
23:00 +20°C° 1.4 mm 3 mps 745 mmHg 96%

26 June, Saturday

Time Temperature Precipitation Wind Pressure Humidity
00:00 +20°C° 0.1 mm 3 mps 745 mmHg 97%
01:00 +20°C° 0.1 mm 4 mps 745 mmHg 97%
02:00 +19°C° 0.1 mm 4 mps 745 mmHg 98%
03:00 +19°C° 0 mm 3 mps 745 mmHg 97%
04:00 +19°C° 0 mm 3 mps 745 mmHg 97%
05:00 +19°C° 0 mm 2 mps 746 mmHg 97%
06:00 +19°C° 0 mm 3 mps 746 mmHg 94%
07:00 +20°C° 0 mm 3 mps 746 mmHg 90%
08:00 +21°C° 0 mm 4 mps 746 mmHg 87%
09:00 +21°C° 0 mm 4 mps 746 mmHg 82%
10:00 +22°C° 0 mm 4 mps 747 mmHg 78%
11:00 +23°C° 0 mm 4 mps 747 mmHg 73%
12:00 +22°C° 0.1 mm 4 mps 747 mmHg 73%
13:00 +22°C° 0.1 mm 4 mps 747 mmHg 74%
14:00 +22°C° 0.1 mm 4 mps 747 mmHg 75%
15:00 +22°C° 0.1 mm 4 mps 747 mmHg 75%
16:00 +22°C° 0.1 mm 4 mps 747 mmHg 75%
17:00 +22°C° 0.1 mm 4 mps 747 mmHg 75%
18:00 +21°C° 0.1 mm 3 mps 747 mmHg 79%
19:00 +21°C° 0.1 mm 3 mps 747 mmHg 83%
20:00 +20°C° 0.1 mm 3 mps 747 mmHg 87%
21:00 +19°C° 0.1 mm 3 mps 747 mmHg 89%
22:00 +18°C° 0.1 mm 2 mps 748 mmHg 91%
23:00 +17°C° 0.1 mm 2 mps 748 mmHg 93%

27 June, Sunday

Time Temperature Precipitation Wind Pressure Humidity
00:00 +17°C° 0 mm 2 mps 748 mmHg 93%
01:00 +17°C° 0 mm 2 mps 748 mmHg 93%
02:00 +16°C° 0 mm 2 mps 748 mmHg 93%
03:00 +16°C° 0 mm 2 mps 748 mmHg 94%
04:00 +16°C° 0 mm 2 mps 748 mmHg 95%
05:00 +15°C° 0 mm 2 mps 748 mmHg 95%
06:00 +16°C° 0 mm 3 mps 749 mmHg 90%
07:00 +18°C° 0 mm 3 mps 749 mmHg 84%
08:00 +19°C° 0 mm 3 mps 749 mmHg 79%
09:00 +20°C° 0 mm 3 mps 749 mmHg 73%
10:00 +21°C° 0 mm 4 mps 749 mmHg 68%
11:00 +22°C° 0 mm 4 mps 749 mmHg 63%
12:00 +22°C° 0 mm 4 mps 749 mmHg 64%
13:00 +23°C° 0 mm 4 mps 749 mmHg 65%
14:00 +23°C° 0 mm 4 mps 749 mmHg 65%
15:00 +24°C° 0 mm 3 mps 749 mmHg 65%
16:00 +24°C° 0 mm 3 mps 749 mmHg 65%
17:00 +24°C° 0 mm 3 mps 749 mmHg 65%
18:00 +22°C° 0 mm 3 mps 749 mmHg 70%
19:00 +21°C° 0 mm 2 mps 749 mmHg 74%
20:00 +20°C° 0 mm 2 mps 749 mmHg 79%
21:00 +19°C° 0 mm 2 mps 749 mmHg 82%
22:00 +19°C° 0 mm 1 mps 749 mmHg 86%
23:00 +18°C° 0 mm 1 mps 749 mmHg 89%

28 June, Monday

Time Temperature Precipitation Wind Pressure Humidity
00:00 +16°C° 0 mm 1 mps 750 mmHg 90%
01:00 +16°C° 0 mm 1 mps 750 mmHg 91%
02:00 +15°C° 0 mm 1 mps 750 mmHg 92%
03:00 +15°C° 0 mm 1 mps 750 mmHg 92%
04:00 +16°C° 0 mm 1 mps 750 mmHg 91%
05:00 +16°C° 0 mm 1 mps 750 mmHg 91%
06:00 +18°C° 0 mm 1 mps 750 mmHg 85%
07:00 +19°C° 0 mm 2 mps 750 mmHg 78%
08:00 +21°C° 0 mm 2 mps 750 mmHg 72%
09:00 +23°C° 0 mm 2 mps 750 mmHg 68%
10:00 +24°C° 0 mm 3 mps 750 mmHg 63%
11:00 +25°C° 0 mm 3 mps 750 mmHg 59%
12:00 +26°C° 0.1 mm 3 mps 750 mmHg 56%
13:00 +26°C° 0.1 mm 3 mps 749 mmHg 53%
14:00 +27°C° 0.1 mm 4 mps 749 mmHg 50%
15:00 +26°C° 0 mm 3 mps 749 mmHg 55%
16:00 +26°C° 0 mm 3 mps 749 mmHg 60%
17:00 +25°C° 0 mm 3 mps 749 mmHg 65%
18:00 +22°C° 0.2 mm 3 mps 749 mmHg 71%
19:00 +21°C° 0.2 mm 3 mps 749 mmHg 78%
20:00 +19°C° 0.2 mm 3 mps 749 mmHg 85%
21:00 +19°C° 0 mm 2 mps 749 mmHg 87%
22:00 +18°C° 0 mm 2 mps 749 mmHg 89%
23:00 +18°C° 0 mm 1 mps 749 mmHg 92%
Show more